Starlink 30121

operational
NORAD ID: 56695 Int'l Des: 2023-067 Owner: SPXS Country: US Constellation: starlink
LEOCIRCULAR

关于 Starlink 30121

正在加载描述...

实时位置

正在加载3D地球...

即将过境

高度历史

Altitude vs Time

uPlot chart will show altitude changes over time

两行轨道根数

1 56695U 23067H 25306.15543566 .00000169 00000-0 27569-4 0 9999
2 56695 43.0039 247.5931 0001456 263.7738 96.2939 15.02534259136470
Epoch: Nov 2, 2025 • Age: 31 hours

当前状态

高度 569.1 km
速度 7.58 km/s
星下点 -37.27°S, 95.01°W
发射日期 May 19, 2023
运行时间 2.4 years
类型 internet

技术详情

分类 Payload
质量 730.00 kg
干质量 700.00 kg
总质量 730.00 kg
长度 0.30 m
直径 4.10 m
跨度 29.00 m
形状 Box + pan
制造商 SPXS
平台类型 Starlink V2M
阶段状态 In Orbit
所有者/国家 SPXS/US

大型星座

Loading constellations...